ARIANE 44L DEB, 24723

Orbit data source: Space-Track

ARIANE 44L DEB, 24723 is space debris in HEO originally from a launch on Tue, 15 Jan 1991 UTC launched from the French Guiana (FRGUI). Debris objects in space refer to the collection of defunct objects orbiting the Earth. Examples of debris include non-operational satellites, rocket bodies, and fragments generated from explosions, collisions, or faulty payload assembly.

Loading next visibility...
Identifier
24723, 1991-003F
Orbit
HEO
Country
Flag of FRFR
Related business
Manufacturer
Unknown
Mission
Spacecraft
Bus & Motor
Unknown
Mass
Unknown
Launch date (UTC)
1991-01-15 (35 years ago)
Launch vehicle
Unknown
Launch site
French Guiana (FRGUI)
Object type
Payload
Rocket body
Debris
Shape & HBR
Unknown shape, 1.1 m
Radar Cross Section
Medium (>0.1 m² and <1 m²)

Expand to show TLE details & history
Last TLE update: 2 days ago

TLE from 2 days ago
0 ARIANE 44L DEB
1 24723U 91003F   26171.44698711  .00000070  00000-0  13037-2 0  9991
2 24723   6.6585  83.4755 6846711  41.5768  81.2383  2.65114830291340
Epoch: 2026-06-20T10:43Z
TLE epoch observation values (Epoch: 2026-06-20T10:43:39.686Z)
Latitude
-1.34199°
Longitude
-154.61763°
Altitude
22,410.876 km
Speed
3.101 km/s
True Right ascension
18h 19m 50s
True Declination
-1° 20' 24"
Sunlit
Object was in daylight at epoch
Visualization orbit readout
Latitude
Unknown
Longitude
Unknown
Altitude
Unknown
Speed
Unknown
Apparent Right ascension
Unknown
Apparent Declination
Unknown
Sunlit
N/A
Visualization observer readout
Local Sidereal Time
23:08:23
Azimuth
Unknown
Elevation
Unknown
Doppler factor
Unknown
Orbital elements
Apogee altitude
30,780.584 km
Perigee altitude
577.06 km
Semi-major axis
22,056.959 km
Eccentricity
0.68467
Inclination
6.6585°
RAAN
83.4755°
Arg. of periapsis
41.5768°
True anomaly
149.9579°
Mean anomaly
81.2383°
Eccentric anomaly
116.38157°
Mean motion
0.66256 °/min
Orbital period
543.35 mins
BSTAR
0.0013037
Loading maneuver chart data...
Computing Atmospheric mass density...
Loading historical data...
Loading historical data...
Loading historical data...
Loading historical data...
Loading historical data...
Loading historical data...
Loading historical data...

Documentation

Showing up to 5 results
|